METEOR 2-5 DEB

Satellite information

Favourite Embed

Satellite Type and Status

DEBRISDECAYED

Key statistics

Satellite METEOR 2-5 DEB at a glance.

Uptime

16782

Days in orbit

Revolutions

≈ 15.5

Per day

Orbit

LEO

Low Earth Orbit

Inclination

81.2

Latest

Satellite identification and parameters

Extended collection of information and parameters for METEOR 2-5 DEB.

Object identification

Identified? True

Debris? True

Object name: METEOR 2-5 DEB

International designator: 1979-095V

Object number (NORAD): 35254

Object ID (CCSDS): 35254

Country: COMMONWEALTH OF INDEPENDENT STATES (CIS)

Current information (Y/N): Y

RCS size: SMALL

Orbital parameters

Decay date: Oct. 11, 2025

Period: 92.967 minutes

Inclination: 81.1824 deg

SMA: 6797.952 km

Apoapsis: 423.265 km

Periapsis: 416.369 km

RAAN: 77.148 deg

Eccentricy: 0.0005072

Argument of periapsis: 310.5547 deg

Mean anomaly: 49.5257 deg

Mean motion: 15.48943637 rev/day

Mean motion (dot): 0.00582778 rev/day2

B* drag term: 0.010032 1/REarth

Two-line elements (TLE)

Creation date: Oct. 9, 2025, 11:06 a.m.

Reference frame: TEME

Reference center: EARTH

Epoch: Sept. 23, 2025, 6:18 p.m. UTC

TLE line 0: 0 METEOR 2-5 DEB

TLE line 1: 1 35254U 79095V 25266.76251132 .00582778 00000-0 10032-1 0 9991

TLE line 2: 2 35254 81.1824 77.1480 0005072 310.5547 49.5257 15.48943637636907

Live tracking on map

Satellite METEOR 2-5 DEB has decayed and is no longer in orbit. No tracking available.

In-orbit conjunctions

Satellite METEOR 2-5 DEB has decayed and is no longer in orbit. No conjunctions available.

Associated space launch

Second generation soviet meteorological satellite

METEOR 2-5 DEB was lifted into orbit during the mission ‘Vostok 8A92M | Meteor-2 5’, on board a Vostok 8A92M space rocket.

The launch took place on Oct. 31, 1979, 9:25 a.m. from 43/4 (43R).

For more information about the launch, click the button.

Launch to space Vostok 8A92M | Meteor-2 5
Vostok 8A92M | Meteor-2 5

Agency: N/A

Status: Launch Successful

Launch date: Oct. 31, 1979, 9:25 a.m. UTC

Rocket: Vostok 8A92M

Launch pad: 43/4 (43R)

Location: Plesetsk Cosmodrome, Russian Federation

...

Latest news about this satellite

There are no fresh news available about this satellite. Check back as we update our databases every day.


Newsletter sign-up

Weekly statistics, charts and insights to help you stay on top of the space industry.